This is the latest recevied weather packets stored in our database for station/object IZ4UFQ-10. If no packets are shown the sender has not sent any weather packets the latest 10 day(s).
| Time | Temp. | Humidity | Pressure | Rain* | Wind** | Luminosity | Snow |
|---|---|---|---|---|---|---|---|
| 1777917321 | 22.22° C | 42% | 1014.6 hPa | 0 mm | - | 21 W/m² | - |
| 1777917021 | 22.22° C | 42% | 1014.5 hPa | 0 mm | - | 30 W/m² | - |
| 1777916721 | 22.22° C | 41% | 1014.6 hPa | 0 mm | - | 42 W/m² | - |
| 1777916421 | 22.78° C | 41% | 1014.5 hPa | 0 mm | - | 53 W/m² | - |
| 1777916120 | 22.78° C | 40% | 1014.5 hPa | 0 mm | - | 54 W/m² | - |
| 1777915820 | 22.78° C | 40% | 1014.5 hPa | 0 mm | - | 81 W/m² | - |
| 1777915520 | 22.78° C | 39% | 1014.5 hPa | 0 mm | - | 95 W/m² | - |
| 1777915219 | 23.33° C | 38% | 1014.5 hPa | 0 mm | - | 134 W/m² | - |
| 1777914919 | 23.33° C | 37% | 1014.6 hPa | 0 mm | - | 149 W/m² | - |
| 1777914619 | 23.33° C | 37% | 1014.6 hPa | 0 mm | - | 155 W/m² | - |
| 1777914319 | 23.89° C | 36% | 1014.6 hPa | 0 mm | - | 160 W/m² | - |
| 1777914018 | 23.33° C | 35% | 1014.5 hPa | 0 mm | - | 185 W/m² | - |
| 1777913718 | 23.89° C | 35% | 1014.5 hPa | 0 mm | - | 214 W/m² | - |
| 1777913418 | 23.89° C | 36% | 1014.6 hPa | 0 mm | - | 236 W/m² | - |
| 1777913117 | 23.89° C | 36% | 1014.6 hPa | 0 mm | - | 255 W/m² | - |
| 1777912817 | 23.89° C | 35% | 1014.5 hPa | 0 mm | - | 269 W/m² | - |
| 1777912517 | 23.89° C | 35% | 1014.6 hPa | 0 mm | - | 287 W/m² | - |
| 1777912217 | 23.89° C | 35% | 1014.6 hPa | 0 mm | - | 294 W/m² | - |
| 1777911916 | 24.44° C | 35% | 1014.6 hPa | 0 mm | - | 313 W/m² | - |
| 1777911616 | 24.44° C | 35% | 1014.7 hPa | 0 mm | - | 241 W/m² | - |
| 1777911316 | 25° C | 35% | 1014.6 hPa | 0 mm | - | 202 W/m² | - |
| 1777911015 | 25° C | 34% | 1014.7 hPa | 0 mm | - | 359 W/m² | - |
| 1777910715 | 24.44° C | 34% | 1014.8 hPa | 0 mm | - | 380 W/m² | - |
| 1777910415 | 24.44° C | 34% | 1014.8 hPa | 0 mm | - | 394 W/m² | - |
| 1777910115 | 24.44° C | 34% | 1014.8 hPa | 0 mm | - | 397 W/m² | - |
* Rain latest hour (hover to see other rain measurements)
** Current wind speed in m/s (hover to see current wind gust speed)